Flag for Morocco Weather past 2 weeks in Tangier, Morocco

59 °F

Passing clouds.

Feels Like: 57 °F
Forecast: N/A
Wind: 10 mph from Southeast

Location: Tanger Aerodrome

Current Time: Nov 30, 2015 at 11:26:51 PM

Latest Report: Nov 30, 2015 at 11:00 PM

Visibility: N/A

Pressure: 30.45 "Hg

Humidity: 77%

Dew point: 52 °F

Location of TangierLocation

Historic Weather in Tangier — Graph


Tangier temperature yesterday

Maximum temperature yesterday: 70 °F (at 11:30 AM)
Minimum temperature yesterday: 57 °F (at 12:00 AM)
Average temperature yesterday: 63 °F

Past Weeks' High & Low Weather Summary

High72 °F (Nov 16, 11:30 AM)94% (Nov 16, 11:00 PM)30.48 "Hg (Nov 16, 11:00 PM)
Low41 °F (Nov 24, 2:30 AM)40% (Nov 28, 2:00 PM)29.98 "Hg (Nov 23, 1:30 AM)
Average59 °F72%30.24 "Hg
* Reported Nov 15 10:00 PM — Nov 30 10:30 PM, Tangier, Weather by CustomWeather, © 2015

Note: Actual official high and low records may vary slightly from our data, if they occured in-between our weather recording intervals... More about our weather records


Tangier weather history for previous 24 hours

Time TempWeatherWind HumidityBarometerVisibility
10:30 PM
Mon, Nov 30
59 °FPassing clouds.12 mph77%30.45 "HgN/A
10:00 PM59 °FPassing clouds.12 mph72%30.45 "HgN/A
9:30 PM61 °FPassing clouds.12 mph68%30.45 "HgN/A
9:00 PM61 °FPassing clouds.13 mph68%30.45 "HgN/A
8:30 PM59 °FPassing clouds.13 mph72%30.45 "HgN/A
8:00 PM59 °FPassing clouds.12 mph72%30.45 "HgN/A
7:30 PM61 °FPassing clouds.9 mph68%30.45 "HgN/A
7:00 PM63 °FPassing clouds.14 mph64%30.45 "HgN/A
6:30 PM63 °FPassing clouds.13 mph64%30.45 "HgN/A
6:00 PM63 °FPassing clouds.12 mph64%30.45 "HgN/A
5:30 PM64 °FPassing clouds.14 mph60%30.42 "HgN/A
5:00 PM66 °FPassing clouds.15 mph52%30.42 "HgN/A
4:30 PM68 °FPassing clouds.15 mph49%30.42 "HgN/A
4:00 PM68 °FScattered clouds.16 mph53%30.42 "HgN/A
3:30 PM70 °FScattered clouds.16 mph50%30.42 "HgN/A
3:00 PMN/APartly sunny.15 mphN/A30.42 "HgN/A
2:30 PM70 °FPartly sunny.15 mph50%30.42 "HgN/A
2:00 PM70 °FScattered clouds.16 mph53%30.42 "HgN/A
1:30 PM72 °FScattered clouds.15 mph50%30.42 "HgN/A
1:00 PM72 °FScattered clouds.17 mph50%30.42 "HgN/A
12:30 PM72 °FScattered clouds.18 mph50%30.45 "HgN/A
12:00 PM70 °FScattered clouds.18 mph53%30.45 "HgN/A
11:30 AM70 °FScattered clouds.20 mph57%30.48 "HgN/A
11:00 AM68 °FScattered clouds.20 mph56%30.48 "HgN/A
10:30 AM68 °FScattered clouds.18 mph60%30.48 "HgN/A
10:00 AM68 °FScattered clouds.16 mph56%30.48 "HgN/A
9:30 AM66 °FScattered clouds.14 mph60%30.48 "HgN/A
9:00 AM64 °FScattered clouds.15 mph64%30.48 "HgN/A
8:30 AM63 °FScattered clouds.13 mph68%30.45 "HgN/A
8:00 AM61 °FScattered clouds.14 mph68%30.45 "HgN/A
7:30 AM61 °FScattered clouds.16 mph68%30.42 "HgN/A
7:00 AM61 °FScattered clouds.14 mph72%30.42 "HgN/A
6:30 AM61 °FPassing clouds.16 mph72%30.42 "HgN/A
6:00 AM61 °FPassing clouds.16 mph72%30.42 "HgN/A
5:30 AM61 °FPassing clouds.15 mph72%30.42 "HgN/A
5:00 AM61 °FPassing clouds.14 mph72%30.42 "HgN/A
4:30 AM63 °FPassing clouds.16 mph68%30.42 "HgN/A
3:30 AM63 °FPassing clouds.18 mph64%30.42 "HgN/A
3:00 AM63 °FPassing clouds.21 mph64%30.39 "HgN/A
2:30 AM63 °FPassing clouds.20 mph64%30.39 "HgN/A
2:00 AM63 °FPassing clouds.18 mph64%30.42 "HgN/A
1:30 AM63 °FPassing clouds.18 mph64%30.42 "HgN/A
12:30 AM63 °FPassing clouds.20 mph64%30.42 "HgN/A
12:00 AM63 °FPassing clouds.21 mph64%30.42 "HgN/A
11:30 PM
Sun, Nov 29
63 °FPassing clouds.22 mph64%30.39 "HgN/A
11:00 PM63 °FPassing clouds.22 mph64%30.39 "HgN/A
Weather by CustomWeather, © 2015

See weather overviewHow to use our weather pages